Location: Bühlhof
(48.7849°N, 8.6361°E)
Time: 00:03:18
(UTC+00:00)

NOSS 3-4 (C) - Pass Details

Date: 19 January 2026
Orbit: 773 x 1438 km, 63.4° (Epoch: 26 December)

Event Time Altitude Azimuth Distance (km) Brightness Sun altitude
Rises 17:49:27 0° 246° (WSW) 3,264 7.8 -17.2°
Reaches altitude 10° 17:51:53 10° 253° (WSW) 2,370 6.8 -17.6°
Maximum altitude 17:57:01 43° 325° (NW) 1,188 4.1 -18.4°
Enters shadow 18:01:20 17° 30° (NNE) 2,157 5.0 -19.1°
